Cecil Field, FL

5:08 PM EDT on April 23, 2017 (GMT -0400)
Cecil

Weather History for KVQQ - July, 2013

Change the Weather History Date:

Saturday, July 27, 2013

  Actual Average (KNIP) Record (KNIP)
Temperature  
Mean Temperature 83 °F -  
Max Temperature 93 °F 88 °F 100 °F (1999)
Min Temperature 73 °F 73 °F 71 °F (2000)
Cooling Degree Days 18    
Growing Degree Days 33 (Base 50)    
Moisture  
Dew Point 75 °F    
Average Humidity 92    
Maximum Humidity 100    
Minimum Humidity 56    
Precipitation  
Precipitation 0.00 in - - ()
Sea Level Pressure  
Sea Level Pressure 29.97 in    
Wind  
Wind Speed 1 mph (SSE)    
Max Wind Speed 12 mph    
Max Gust Speed -    
Visibility 6 miles    
Events Fog , Rain    
Averages and records for this station are not official NWS values.
T = Trace of Precipitation, MM = Missing Value Source: NWS Daily Summary

Daily Weather History Graph

Daily Weather History Graph

Search for Another Location

Airport or City:

Trip Planner

Search our weather history database for the weather conditions in past years. The results will help you decide how hot, cold, wet, or windy it might be!

Date:

Astronomy

Jul. 27, 2013 Rise Set
Actual Time 6:43 AM EDT 8:24 PM EDT
Civil Twilight 6:16 AM EDT 8:50 PM EDT
Nautical Twilight 5:45 AM EDT 9:22 PM EDT
Astronomical Twilight 5:12 AM EDT 9:55 PM EDT
Moon 11:41 PM EDT (7/27) 11:53 AM EDT (7/27)
Length of Visible Light 14h 33m
Length of Day
13h 41m
Waning Gibbous, 71% of the Moon is Illuminated
Jul 27
Waning Gibbous
Jul 29
Last Quarter
Aug 6
New
Aug 14
First Quarter
Aug 20
Full

Hourly Weather History & Observations

Time (EDT) Temp. Heat Index Dew Point Humidity Pressure Visibility Wind Dir Wind Speed Gust Speed Precip Events Conditions
12:15 AM 77.0 °F - 77.0 °F 100% 30.02 in 7.0 mi Calm Calm - N/A   Scattered Clouds
12:35 AM 75.2 °F - 75.2 °F 100% 30.02 in 5.0 mi Calm Calm - N/A   Mostly Cloudy
12:55 AM 75.2 °F - 75.2 °F 100% 30.01 in 4.0 mi Calm Calm - N/A   Partly Cloudy
1:15 AM 75.2 °F - 75.2 °F 100% 30.01 in 4.0 mi Calm Calm - N/A   Clear
1:35 AM 75.2 °F - 75.2 °F 100% 30.01 in 2.0 mi Calm Calm - N/A   Clear
1:55 AM 75.2 °F - 75.2 °F 100% 30.00 in 4.0 mi Calm Calm - N/A   Partly Cloudy
2:15 AM 75.2 °F - 75.2 °F 100% 30.00 in 3.0 mi Calm Calm - N/A   Mostly Cloudy
2:35 AM 75.2 °F - 75.2 °F 100% 29.99 in 2.5 mi Calm Calm - N/A   Overcast
2:55 AM 75.2 °F - 75.2 °F 100% 29.98 in 3.0 mi Calm Calm - N/A   Mostly Cloudy
3:15 AM 75.2 °F - 75.2 °F 100% 29.98 in 3.0 mi Calm Calm - N/A   Partly Cloudy
3:35 AM 73.4 °F - 73.4 °F 100% 29.97 in 2.0 mi Calm Calm - N/A   Clear
3:55 AM 75.2 °F - 75.2 °F 100% 29.97 in 1.5 mi Calm Calm - N/A   Clear
4:15 AM 73.4 °F - 73.4 °F 100% 29.97 in 1.8 mi Calm Calm - N/A   Clear
4:35 AM 73.4 °F - 73.4 °F 100% 29.97 in 1.5 mi Calm Calm - N/A   Mostly Cloudy
4:55 AM 73.4 °F - 73.4 °F 100% 29.97 in 4.0 mi Calm Calm - N/A   Overcast
5:15 AM 75.2 °F - 75.2 °F 100% 29.97 in 2.0 mi Calm Calm - N/A   Overcast
5:35 AM 75.2 °F - 75.2 °F 100% 29.97 in 0.2 mi Calm Calm - N/A Fog Fog
5:55 AM 75.2 °F - 75.2 °F 100% 29.97 in 0.2 mi Calm Calm - N/A Fog Fog
6:15 AM 75.2 °F - 75.2 °F 100% 29.98 in 0.2 mi Calm Calm - N/A Fog Fog
6:35 AM 75.2 °F - 75.2 °F 100% 29.98 in 0.2 mi Calm Calm - N/A Fog Fog
6:50 AM 75.2 °F - 75.2 °F 100% 29.98 in 0.2 mi Calm Calm - N/A Fog Fog
7:50 AM 75.2 °F - 75.2 °F 100% 29.99 in 0.5 mi Calm Calm - N/A Fog Fog
8:50 AM 77.0 °F - 77.0 °F 100% 30.00 in 3.0 mi Calm Calm - N/A   Mostly Cloudy
9:10 AM 77.0 °F - 77.0 °F 100% 30.00 in 8.0 mi South 4.6 mph - N/A   Partly Cloudy
9:50 AM 82.4 °F 90.9 °F 77.0 °F 84% 30.00 in 10.0 mi South 5.8 mph - N/A   Partly Cloudy
10:50 AM 84.2 °F 94.1 °F 77.0 °F 79% 30.00 in 10.0 mi Variable 4.6 mph - N/A   Partly Cloudy
11:50 AM 80.6 °F 88.1 °F 78.8 °F 94% 30.00 in 5.0 mi South 3.5 mph - N/A Rain Light Rain
12:50 PM 80.6 °F 88.1 °F 78.8 °F 94% 29.98 in 6.0 mi Variable 4.6 mph - N/A   Mostly Cloudy
1:50 PM 84.2 °F 94.1 °F 77.0 °F 79% 29.96 in 7.0 mi Variable 4.6 mph - N/A   Partly Cloudy
2:50 PM 87.8 °F 97.6 °F 75.2 °F 66% 29.93 in 7.0 mi South 5.8 mph - N/A   Partly Cloudy
3:50 PM 87.8 °F 97.6 °F 75.2 °F 66% 29.91 in 7.0 mi Calm Calm - N/A   Mostly Cloudy
4:50 PM 89.6 °F 99.8 °F 75.2 °F 62% 29.89 in 7.0 mi Variable 4.6 mph - N/A   Scattered Clouds
5:50 PM 93.2 °F 105.0 °F 75.2 °F 56% 29.90 in 7.0 mi SW 8.1 mph - N/A   Mostly Cloudy
6:50 PM 84.2 °F 92.3 °F 75.2 °F 74% 29.94 in 7.0 mi ENE 11.5 mph - N/A   Scattered Clouds
7:50 PM 80.6 °F 86.2 °F 75.2 °F 84% 29.94 in 7.0 mi ESE 8.1 mph - N/A   Partly Cloudy
8:15 PM 78.8 °F - 73.4 °F 83% 29.94 in 10.0 mi Calm Calm - N/A   Clear
8:35 PM 78.8 °F - 69.8 °F 74% 29.95 in 10.0 mi Calm Calm - N/A   Clear
8:55 PM 77.0 °F - 71.6 °F 83% 29.95 in 10.0 mi Calm Calm - N/A   Clear
9:15 PM 77.0 °F - 71.6 °F 83% 29.96 in 10.0 mi Calm Calm - N/A   Clear
9:35 PM 75.2 °F - 71.6 °F 89% 29.96 in 10.0 mi Calm Calm - N/A   Clear
9:55 PM 75.2 °F - 73.4 °F 94% 29.96 in 10.0 mi Calm Calm - N/A   Clear
10:15 PM 75.2 °F - 73.4 °F 94% 29.96 in 10.0 mi Calm Calm - N/A   Clear
10:35 PM 75.2 °F - 73.4 °F 94% 29.96 in 10.0 mi Calm Calm - N/A   Clear
10:55 PM 73.4 °F - 73.4 °F 100% 29.96 in 10.0 mi Calm Calm - N/A   Clear
11:15 PM 73.4 °F - 73.4 °F 100% 29.95 in 10.0 mi Calm Calm - N/A   Clear
11:35 PM 73.4 °F - 73.4 °F 100% 29.95 in 8.0 mi Calm Calm - N/A   Clear
11:55 PM 73.4 °F - 73.4 °F 100% 29.95 in 9.0 mi Calm Calm - N/A   Clear